Lapse_Rate
6.2 5.9 6.6 6.7 6.0 5.6 5.6 5.4 5.6 6.4 6.2 5.7 5.7 5.4 6.2 6.5 6.4 6.3 6.4 6.3 6.3 6.6 6.7 6.6 6.3 6.4 6.2 6.2 6.2 6.3 6.4 6.4 6.6 6.6 6.7 6.7 6.6 6.5 6.5 6.5 6.5 6.3 6.3 6.3
5.9 5.8 6.5 6.0 5.8 5.8 5.7 5.5 5.8 5.9 6.0 5.4 5.5 5.4 5.8 5.7 6.0 6.1 6.3 6.4 6.6 6.8 6.8 6.6 6.5 6.4 6.4 6.3 6.2 6.3 6.4 6.4 6.5 6.5 6.4 6.4 6.4 6.3 6.2 6.1 6.0 5.9 5.9 5.8
5.6 5.7 5.8 5.7 5.7 5.6 5.5 5.5 5.6 5.5 5.5 5.4 5.2 4.9 6.1 6.3 6.3 6.3 6.4 6.5 6.7 6.9 6.9 6.7 6.6 6.4 6.2 6.2 6.4 6.3 6.3 6.2 6.1 6.1 6.1 6.1 6.0 6.0 6.1 6.0 5.9 5.9 5.8 5.7
4.9 5.4 5.6 5.6 5.5 5.4 5.2 5.6 5.4 5.3 5.0 4.9 4.9 4.3 5.4 6.3 6.6 6.7 6.8 6.9 7.0 6.9 6.7 6.6 6.5 6.4 6.2 6.2 6.3 6.1 6.0 5.9 5.9 5.8 5.7 5.7 5.6 5.6 5.5 5.5 5.7 5.7 5.7 5.9
5.1 5.1 5.4 5.4 5.8 5.4 5.2 5.4 5.2 5.1 5.0 4.4 4.9 4.4 4.7 5.9 6.6 7.0 7.0 7.1 6.9 6.8 6.6 6.4 6.2 6.0 5.8 5.9 5.8 5.7 5.7 5.7 5.5 5.5 5.6 5.6 5.5 5.2 5.2 5.2 5.4 5.6 5.7 5.7
5.1 5.0 5.4 5.3 5.5 5.5 5.3 5.4 5.3 5.1 5.0 3.2 5.5 5.5 4.3 5.5 6.2 6.5 6.8 6.8 6.8 6.9 6.9 6.7 6.6 6.0 5.5 5.5 5.4 5.3 5.5 5.5 5.5 5.6 5.6 5.5 5.5 5.5 5.4 5.4 5.4 5.4 5.7 5.9
5.3 5.5 5.5 5.3 5.5 5.7 5.6 5.7 5.3 4.3 3.8 3.5 5.3 4.8 5.6 5.6 6.0 6.3 6.7 6.8 7.1 7.1 7.1 6.8 6.5 5.6 5.4 5.3 5.4 5.3 5.3 5.3 5.4 5.5 5.5 5.4 5.4 5.4 5.5 5.4 5.5 5.3 5.3 5.4
5.8 5.5 6.1 6.3 6.3 6.2 6.0 5.8 6.0 4.4 3.7 4.0 4.8 4.2 5.4 6.0 6.3 6.5 6.8 7.0 6.9 6.9 6.7 6.5 5.9 5.6 5.6 5.6 5.6 5.4 5.3 5.2 5.2 5.5 5.7 5.7 5.8 5.7 5.6 5.6 5.6 5.8 5.6 5.4
6.2 6.0 6.4 6.5 6.5 6.2 5.7 5.5 6.3 5.9 5.2 3.8 5.3 5.5 5.6 5.9 6.3 6.5 6.7 6.8 6.8 6.7 6.3 5.8 5.5 5.5 5.5 5.5 5.5 5.4 5.4 5.6 5.8 5.9 6.1 6.2 6.2 6.1 6.1 6.0 5.9 5.8 5.6 5.2
6.1 6.0 6.1 6.1 6.0 5.9 5.7 6.0 5.7 5.8 4.2 3.2 4.6 4.9 6.1 6.4 6.4 6.4 6.5 6.5 6.5 6.4 6.1 5.7 5.6 5.5 5.5 5.6 5.7 5.8 6.1 6.4 6.6 6.7 6.7 6.5 6.4 6.2 6.2 6.2 6.0 5.8 5.6 5.2
6.0 6.0 5.3 5.6 5.5 6.2 6.0 5.3 5.8 6.4 6.2 4.5 3.4 5.4 5.6 6.0 6.5 6.4 6.3 6.5 6.4 6.2 6.1 5.9 5.9 5.8 5.8 5.9 6.1 6.3 6.5 6.5 6.5 6.5 6.5 6.4 6.3 6.3 6.1 5.8 5.5 5.3 5.2 5.0
6.4 5.8 5.3 5.7 5.8 5.9 6.1 6.1 6.3 6.4 5.7 5.9 5.6 5.1 5.8 6.1 6.3 6.5 6.5 6.5 6.4 6.3 6.1 6.0 5.9 6.0 6.2 6.5 6.6 6.7 6.7 6.7 6.6 6.5 6.2 5.9 5.7 5.5 5.4 5.2 5.1 5.0 4.9 4.8
6.5 5.6 5.2 4.9 4.9 5.3 5.7 6.1 6.3 6.3 6.5 6.2 6.3 5.7 6.2 6.1 6.3 6.6 6.7 6.7 6.5 6.4 6.2 6.1 6.2 6.5 6.7 6.7 6.6 6.5 6.3 6.1 5.9 5.7 5.6 5.4 5.3 5.1 4.9 4.9 4.8 4.7 4.7 4.7
6.0 5.8 5.5 5.5 6.1 5.9 5.8 5.8 6.1 6.2 5.7 6.2 5.9 6.3 6.3 6.5 6.6 6.8 6.8 6.5 6.2 6.2 6.2 6.5 6.7 6.6 6.8 6.6 6.4 6.2 6.0 5.9 5.7 5.5 5.5 5.3 5.1 5.0 4.8 4.7 4.6 4.6 4.6 4.7
5.3 5.1 5.5 5.6 5.7 5.7 5.6 5.7 5.7 5.7 6.0 6.0 6.0 6.6 6.8 6.9 7.1 7.1 6.7 6.3 6.3 6.4 6.7 6.8 6.9 6.8 6.8 6.6 6.4 6.2 5.9 5.8 5.6 5.5 5.5 5.2 5.0 4.9 4.9 4.8 4.8 4.7 4.7 4.8
5.1 5.2 5.2 5.3 5.4 5.6 5.4 5.3 5.2 5.3 5.4 5.9 6.4 6.2 6.8 7.3 6.9 6.6 6.7 6.7 6.8 6.9 6.9 6.8 6.8 6.8 6.7 6.6 6.5 6.2 5.9 5.9 5.6 5.4 5.2 5.0 5.0 5.0 5.0 5.0 4.9 5.1 5.3 5.7
5.3 5.4 5.3 5.2 5.5 5.5 5.0 4.7 5.3 5.7 6.0 6.3 6.1 6.7 6.9 6.9 6.8 6.8 6.8 7.1 7.3 7.1 7.0 6.9 6.9 6.9 6.9 6.8 6.4 6.1 5.8 5.6 5.4 5.2 5.2 5.2 5.1 5.1 5.1 5.2 5.7 6.0 6.2 6.3
5.1 5.3 5.6 5.6 5.5 4.7 5.3 5.7 5.6 6.0 6.1 6.3 6.5 6.8 7.0 6.8 6.7 7.0 7.1 7.1 7.2 7.1 7.0 6.9 6.8 6.9 6.8 6.4 6.1 5.7 5.5 5.3 5.3 5.2 5.2 5.2 5.3 5.5 5.9 6.1 6.3 6.4 6.5 6.5
5.1 5.2 5.7 5.4 5.0 5.6 5.7 5.5 5.9 6.1 6.1 6.0 6.5 6.9 6.8 6.5 6.7 6.8 7.0 6.8 6.8 6.8 6.8 6.8 6.8 6.5 6.3 6.0 5.6 5.5 5.5 5.4 5.4 5.5 5.4 5.6 5.9 6.2 6.3 6.5 6.6 6.6 6.5 6.5
5.2 5.4 5.7 5.2 4.7 4.8 6.0 5.9 6.2 6.3 5.9 6.6 7.1 7.1 7.0 6.8 6.6 7.0 6.5 6.6 6.7 6.7 6.7 6.6 6.4 6.2 6.1 5.8 5.6 5.5 5.6 5.6 5.8 5.9 6.2 6.5 6.6 6.6 6.6 6.6 6.6 6.6 6.6 6.7
4.9 5.1 5.5 5.7 5.5 5.6 5.7 5.9 6.1 6.2 6.5 6.9 6.6 6.5 6.5 6.7 6.5 6.4 6.6 6.6 6.7 6.7 6.6 6.4 6.2 6.0 5.9 5.9 5.8 5.7 5.8 6.2 6.5 6.8 7.0 6.9 6.7 6.6 6.6 6.6 6.7 6.6 6.7 6.7
5.6 5.4 5.2 5.2 5.3 5.2 5.9 6.3 6.4 6.7 6.7 6.8 6.7 6.7 6.6 6.4 6.4 6.6 6.7 6.6 6.4 6.4 6.2 6.1 6.0 6.1 6.1 6.1 6.1 6.2 6.5 6.8 7.0 7.1 7.2 6.9 6.6 6.5 6.6 6.7 6.7 6.6 6.6 6.6
5.5 5.8 6.2 6.2 6.2 6.3 6.3 6.5 6.9 7.0 6.9 6.8 6.7 6.7 6.5 6.3 6.7 6.5 6.5 6.4 6.3 6.0 5.9 6.0 5.9 6.0 6.2 6.5 6.7 6.9 7.0 7.2 7.2 7.3 7.2 6.9 6.7 6.7 6.8 6.8 6.8 6.9 6.7 6.8
5.8 6.3 5.9 6.2 6.1 6.5 6.8 6.8 7.1 7.4 7.0 6.9 6.9 6.8 6.6 6.5 6.6 6.7 6.7 6.3 6.0 6.1 6.2 6.2 6.1 6.4 6.8 7.0 6.9 7.1 7.2 7.2 7.2 7.3 7.3 7.2 7.0 7.0 7.0 6.9 7.0 7.2 7.1 7.2
6.3 6.2 5.9 6.2 6.3 6.8 7.1 7.4 7.4 7.0 7.0 7.2 7.1 6.9 6.8 6.8 6.8 6.9 6.8 6.6 6.7 6.6 6.6 6.6 6.7 7.0 7.0 7.0 7.2 7.4 7.3 7.2 7.3 7.3 7.4 7.3 7.0 7.0 7.1 7.1 7.3 7.2 7.3 7.4
6.4 6.4 6.2 6.4 7.0 7.2 7.3 7.1 7.0 7.2 7.3 7.3 7.1 7.1 7.2 7.1 7.0 7.0 7.0 7.2 7.2 7.1 7.2 7.3 7.3 7.2 7.2 7.2 7.4 7.4 7.3 7.3 7.3 7.4 7.3 7.3 7.2 7.3 7.3 7.4 7.6 7.6 7.7 7.8
Wind_Speed
2 4 8 13 10 3 5 5 6 3 3 2 6 6 12 5 6 7 6 6 6 6 4 6 7 8 8 9 10 10 11 10 6 5 4 7 6 7 9 18 23 23 23 23
4 7 10 4 5 5 3 4 6 5 3 4 7 8 11 2 2 3 8 7 6 4 5 7 8 8 9 9 9 10 10 9 8 4 4 4 4 6 10 15 21 23 23 22
7 5 6 6 5 6 5 8 4 7 3 3 2 6 8 3 3 6 6 5 5 7 7 5 6 7 7 9 9 9 8 9 8 7 5 4 6 6 6 8 10 20 22 22
6 4 5 4 6 7 6 8 7 5 3 4 1 5 5 4 4 4 7 7 7 6 4 4 5 5 6 7 7 7 8 9 9 9 11 14 9 9 3 4 6 14 21 21
7 5 4 5 6 7 7 5 6 4 3 1 3 2 7 6 6 7 6 5 4 3 3 5 5 6 5 6 6 6 7 10 9 9 9 10 11 7 3 4 8 7 15 20
5 2 6 7 2 4 6 5 6 4 3 2 9 8 4 5 4 4 5 8 9 7 6 2 4 5 5 6 7 6 7 9 9 10 10 12 11 7 8 6 7 5 4 12
2 5 3 3 4 2 4 5 1 3 2 6 1 2 5 2 2 1 11 10 8 7 7 5 4 4 5 5 5 6 6 8 7 10 10 9 8 8 8 6 5 6 4 4
7 4 10 6 7 6 7 7 5 6 3 4 2 6 4 2 4 4 7 9 8 7 7 7 7 6 6 5 5 6 6 6 6 7 7 6 7 5 5 6 4 4 4 4
5 4 1 3 4 7 5 5 4 4 2 2 4 4 3 1 3 4 8 10 9 8 8 8 7 6 6 5 6 6 6 6 6 6 6 6 6 6 6 6 6 4 8 9
6 2 0 2 3 4 4 6 3 2 2 5 4 4 5 6 7 6 8 10 9 8 8 7 6 7 6 6 5 5 5 6 6 6 6 5 6 5 6 7 6 6 8 10
5 3 1 3 5 9 3 2 3 3 4 5 3 5 5 6 7 11 11 10 10 9 9 8 7 7 7 6 6 6 6 6 6 6 5 6 5 5 6 5 4 4 3 5
7 4 4 8 2 2 3 7 7 6 7 3 2 12 1 3 9 8 8 8 8 8 8 7 8 7 7 7 6 7 6 6 6 6 6 6 5 5 4 4 3 5 4 7
9 3 2 5 1 2 5 5 3 3 3 7 5 8 1 1 5 8 9 9 9 9 8 8 7 9 8 7 7 7 6 6 6 6 6 5 5 4 3 2 1 2 3 3
6 6 8 9 6 5 4 6 5 6 6 8 14 17 4 5 7 6 7 7 8 8 9 7 5 8 8 8 7 7 7 6 6 6 6 6 5 4 3 2 2 1 2 2
4 5 3 2 3 4 6 7 9 10 11 12 14 15 7 11 9 9 7 6 5 7 7 7 8 8 7 7 7 7 7 7 6 7 6 6 5 4 4 3 2 2 3 5
2 3 3 2 2 4 6 11 11 15 6 6 4 13 7 6 6 4 8 8 6 8 7 7 7 7 10 11 10 9 8 8 7 7 7 6 4 4 3 2 3 3 4 4
7 6 4 8 4 6 10 13 15 7 5 10 14 14 3 5 8 8 8 6 7 8 7 6 7 7 7 9 9 9 9 6 6 6 5 5 4 3 2 2 4 4 4 4
7 6 3 3 3 8 2 2 3 14 10 9 1 4 6 5 5 5 6 8 9 7 7 6 6 6 7 5 6 4 6 6 7 6 6 5 4 3 2 3 3 3 2 4
1 5 4 4 6 7 6 5 7 8 10 10 11 7 5 5 4 4 6 7 7 8 7 7 6 4 4 6 6 6 5 6 7 7 6 5 4 3 2 2 0 1 3 4
3 3 6 4 4 7 3 2 4 5 6 8 9 9 7 6 2 5 5 6 9 8 5 7 6 3 3 4 5 6 6 7 8 6 5 4 3 3 2 1 2 1 2 7
4 0 8 6 7 7 5 5 4 5 7 4 6 6 7 5 5 4 4 6 7 7 8 5 6 6 7 5 6 6 6 9 4 5 5 4 3 3 1 1 1 1 3 6
7 8 4 2 3 10 7 4 8 5 3 5 6 7 7 7 6 6 6 6 7 9 7 7 6 7 5 6 7 6 8 5 6 5 4 3 2 1 1 1 2 3 3 5
2 6 6 10 6 1 10 4 4 5 6 5 6 7 8 7 7 8 8 9 9 8 8 4 7 7 6 6 6 7 5 7 6 5 4 2 0 1 1 2 3 2 2 3
4 3 3 3 3 5 9 5 3 7 7 8 7 6 7 8 7 8 7 7 7 6 8 4 4 6 7 6 6 4 6 6 6 4 3 2 2 2 2 2 3 2 3 4
5 7 6 1 1 2 6 8 8 9 9 5 5 7 9 6 8 8 7 7 7 8 5 5 7 7 8 7 6 5 6 6 5 3 3 3 2 3 3 4 3 4 5 6
6 7 4 4 8 6 7 12 12 10 10 10 9 7 6 7 10 7 8 7 7 7 3 5 5 5 5 6 7 6 6 6 5 4 3 3 3 3 3 3 5 12 15 18
Wind_Direction
16 123 209 200 199 156 151 177 221 252 237 157 238 246 263 291 109 139 148 123 94 65 12 26 13 8 5 14 20 20 32 14 39 46 47 57 50 53 52 50 41 39 35 36
54 225 223 129 173 184 126 177 248 289 241 164 269 262 256 319 72 197 158 149 130 108 47 19 21 21 26 7 1 16 32 34 39 62 77 71 83 58 56 48 47 44 41 36
172 215 136 156 169 167 200 212 206 221 347 254 314 273 251 71 77 62 83 126 144 147 123 65 38 27 22 27 359 14 25 45 46 49 88 92 78 57 45 34 43 39 46 43
232 274 192 171 211 148 220 194 189 217 113 241 161 273 290 165 116 133 163 170 165 146 115 100 90 69 41 29 6 12 29 46 49 58 75 79 87 89 56 61 53 49 47 46
237 176 173 205 217 164 227 140 166 161 172 102 265 324 257 144 215 200 197 173 162 159 132 120 95 81 52 53 37 19 37 50 47 58 75 87 87 83 67 54 61 44 44 42
229 270 166 202 109 177 131 74 47 48 105 244 223 188 262 195 210 145 162 175 171 169 154 139 105 95 71 52 55 42 58 58 53 67 69 79 85 81 76 57 55 33 31 38
198 223 186 164 107 76 94 96 325 331 327 235 14 168 257 173 66 226 186 175 174 163 161 173 149 127 107 94 82 76 67 71 65 80 78 81 89 90 89 78 67 59 42 28
170 255 167 190 189 173 177 161 165 226 225 275 350 234 246 336 341 298 169 157 165 170 169 187 184 164 155 145 127 117 109 101 84 84 82 83 85 87 81 76 72 64 60 44
155 267 152 160 143 146 187 180 160 102 102 29 211 301 271 78 61 88 136 153 179 190 186 192 192 183 174 167 168 154 130 111 102 100 96 84 85 85 84 77 70 60 44 27
204 140 157 131 101 26 174 163 96 17 270 259 249 251 233 245 216 170 171 186 191 193 195 200 194 191 192 187 173 146 139 137 133 119 108 95 87 84 79 65 56 47 35 24
149 135 229 107 208 174 138 184 75 135 168 196 274 254 202 222 184 193 196 200 195 193 198 200 197 201 189 178 170 165 157 149 140 125 114 103 92 87 86 84 82 65 45 22
193 132 169 195 169 149 179 191 166 199 225 244 148 263 38 298 192 186 193 197 198 202 198 199 203 189 187 187 180 182 173 165 165 152 141 138 134 128 108 91 66 35 23 9
177 185 79 354 52 333 213 203 166 106 72 195 219 264 359 39 175 197 193 199 203 205 202 207 197 198 195 193 191 186 186 188 177 168 160 163 162 141 127 119 64 19 355 349
154 167 168 213 188 140 186 203 185 189 226 241 243 267 184 223 206 195 211 204 208 204 205 209 194 205 197 197 194 191 199 195 183 181 180 177 177 176 165 134 113 63 2 12
167 216 176 205 164 183 205 205 176 196 214 224 257 232 178 206 207 214 212 214 206 217 218 212 214 209 200 192 197 201 203 192 186 182 182 191 180 173 151 132 121 51 40 21
346 197 117 279 170 223 261 235 189 211 208 241 224 261 175 219 226 193 217 221 233 244 237 227 217 197 201 199 203 201 201 202 177 188 191 175 169 165 142 107 46 37 19 6
162 143 118 244 81 60 274 227 214 205 192 219 230 239 146 208 213 217 230 213 216 223 230 237 227 210 201 198 201 203 208 173 186 178 166 163 159 154 100 64 40 17 356 345
158 128 145 140 89 228 250 102 149 213 233 207 31 217 198 183 192 197 203 196 215 212 211 219 220 215 215 202 202 198 172 176 175 172 167 166 161 145 119 60 41 343 338 339
298 130 157 184 200 320 266 180 160 166 243 178 208 228 190 134 120 264 207 208 205 202 207 208 200 188 182 204 205 184 172 168 167 181 176 171 163 144 75 57 42 327 335 328
76 44 206 135 199 235 296 113 110 89 265 203 184 203 157 133 148 250 216 203 217 215 197 191 185 186 213 227 168 164 183 176 194 169 160 152 148 132 94 53 9 61 331 305
129 118 213 211 230 273 216 175 144 140 260 172 170 159 148 171 197 215 187 208 211 197 199 190 181 211 226 175 154 188 169 203 148 135 135 142 124 94 52 33 19 328 295 301
158 166 198 122 228 267 151 61 172 199 18 149 173 171 177 209 238 229 230 238 212 210 208 208 209 225 211 175 164 183 197 144 140 142 145 139 102 13 38 54 293 302 295 294
236 193 183 190 202 68 192 172 187 153 155 195 182 198 195 203 218 226 226 223 220 215 224 210 209 224 200 178 176 188 174 146 147 142 156 171 221 282 269 258 283 289 244 264
254 161 201 99 196 200 207 226 209 198 204 195 207 179 176 212 223 237 231 230 224 223 234 210 170 212 223 184 175 164 147 141 141 159 190 206 239 291 259 274 265 221 243 264
195 138 154 251 248 91 271 234 231 218 231 202 176 203 215 202 245 226 241 233 230 230 220 187 203 214 219 163 159 147 143 140 156 165 205 226 232 240 273 262 243 254 248 244
177 172 164 207 196 171 209 219 218 214 222 217 209 237 230 197 230 214 237 232 228 234 193 203 206 194 174 159 154 157 153 155 161 187 204 216 223 230 255 265 284 280 283 285